Location: Kaltenbach
(49.2000°N, 7.7500°E)
Time: 20:32:21
(UTC+00:00)

Cosmos 1943 - Pass Details

Date: 24 January 2020
Orbit: 834 x 850 km, 71.0° (Epoch: 16 February)

Event Time Altitude Azimuth Distance (km) Brightness Sun altitude
Rises 18:05:57 0° 334° (NNW) 3,400 6.6 -18.4°
Reaches altitude 10° 18:08:36 10° 343° (NNW) 2,464 5.7 -18.8°
Maximum altitude 18:13:49 37° 50° (NE) 1,279 3.7 -19.7°
Enters shadow 18:14:31 36° 67° (ENE) 1,309 3.7 -19.8°
